Regional Weather Roundup
Issued by NWS

Home | Current Version | Previous Version | Graphics & Text | Print | Product List | Glossary On
Versions: 1 2 3 4 5 6 7 8 9 10 11 12 13 14 15 16 17 18 19 20 21 22 23 24 25 26 27 28 29 30 31 32 33 34 35 36 37 38 39 40 41 42 43 44 45 46 47 48
000
ASUS45 KTFX 281010
RWRMT
MONTANA REGIONAL WEATHER ROUNDUP
NATIONAL WEATHER SERVICE GREAT FALLS MT
400 AM MDT THU MAY 28 2015

NOTE: "FAIR" INDICATES FEW OR NO CLOUDS BELOW 12000 FEET WITH NO
SIGNIFICANT WEATHER AND/OR OBSTRUCTIONS TO VISIBILITY.

MTZ001>007-043-281100-
WEST OF THE DIVIDE

CITY           SKY/WX    TMP DP  RH WIND       PRES   REMARKS
KALISPELL      PTSUNNY   47  46  97 CALM      30.04R
MISSOULA       CLOUDY    49  45  86 CALM      30.07S
BUTTE          CLOUDY    45  41  86 E5        30.10S
MULLAN PASS    PTCLDY    44  41  89 NW5       30.12R
DEER LODGE       N/A     48  46  93 CALM      30.12S
EUREKA           N/A     46  46 100 CALM      30.06R
HAMILTON         N/A     52  46  82 S8        30.07S
LIBBY            N/A     52  50  93 CALM      30.06R
PLAINS           N/A     50  47  89 CALM      30.06R VSB 0
RONAN            N/A     48  46  93 W2        30.08S
THOMPSON FALLS   N/A     45  44  96 CALM      30.10R VSB 1
$$

MTZ008-052>055-281100-
SOUTHWEST MONTANA

CITY           SKY/WX    TMP DP  RH WIND       PRES   REMARKS
BOZEMAN        CLOUDY    49  46  90 SE6       30.06S
DILLON         LGT RAIN  47  43  86 VRB5      30.08S
W YELLOWSTONE  CLOUDY    39  39 100 SW3       30.12S
THREE FORKS      N/A     50  30  46 CALM      30.04S
$$

MTZ009-010-012-014-046-048-049-054-281100-
EAST SLOPES AND CENTRAL MONTANA

CITY           SKY/WX    TMP DP  RH WIND       PRES   REMARKS
CUT BANK       PTCLDY    46  44  93 W3        30.01R
GREAT FALLS    CLOUDY    50  47  89 SW7       29.99S
MALMSTROM AFB  MOCLDY    50  48  92 SW6       29.99F
HELENA         CLOUDY    53  48  83 N3        30.03S
CONRAD           N/A     52  49  89 W9        30.02R
$$

MTZ011-013-016-021-045-047-050-051-281100-
NORTH CENTRAL MONTANA

CITY           SKY/WX    TMP DP  RH WIND       PRES   REMARKS
HAVRE          CLEAR     45  45 100 SW5       29.95R
LEWISTOWN      PTCLDY    47  42  83 SW10      30.00S
N BAR RANCH    CLOUDY    52  45  76 W7        30.02S
CHINOOK          N/A     48  48 100 W3        29.94R
FORT BENTON      N/A     52  48  87 SW7       29.98S
$$

MTZ017>020-022>027-061-062-281100-
NORTHEAST MONTANA

CITY           SKY/WX    TMP DP  RH WIND       PRES   REMARKS
GLASGOW        FOG       50  49  96 W8        29.88R VSB 1/4
JORDAN           N/A     50  49  96 W5        29.91R
SIDNEY         CLOUDY    48  46  93 CALM      29.89R VSB<1/4
WOLF POINT     PTCLDY    51  49  92 E5        29.88R
MALTA            N/A     49  44  83 SW3       29.87S
PLENTYWOOD       N/A     54  54 100 CALM      29.88F
POPLAR           N/A     48  48 100 N5        29.89R
SCOBEY           N/A     51  45  80 E1        29.87F
$$

MTZ028>42-056>058-281100-
SOUTHCENTRAL AND SOUTHEAST MONTANA

CITY           SKY/WX    TMP DP  RH WIND       PRES   REMARKS
BAKER          MOCLDY    51  50  96 W6        29.93R
BILLINGS       MOCLDY    49  46  90 SW8       29.97F
LIVINGSTON     CLOUDY    51  44  77 W9        30.03S
MILES CITY     FOG       51  51 100 SW6       29.91F VSB 1
BIG TIMBER       N/A     50  45  81 W8        30.02R
EKALAKA          N/A     52  48  86 SE2       29.93R
LAUREL           N/A     47  38  71 W1        29.97S
ROUNDUP          N/A     50  45  83 SW3       29.89S
$$

REGIONAL REPORTS...DAKOTAS

CITY           SKY/WX    TMP DP  RH WIND       PRES   REMARKS
WILLISTON      CLOUDY    56  54  93 CALM      29.88S
MINOT          CLOUDY    58  56  93 E7        29.88F
DICKINSON      MOCLDY    50  48  93 SW3       29.88S FOG
BEACH          FAIR      48  48 100 S5        29.91S
CROSBY         PTSUNNY   55  55 100 E7        29.89S FOG
WATFORD CITY   CLOUDY    54  54 100 W3        29.87S
BISMARCK       PTCLDY    57  55  93 SE5       29.89F
GRAND FORKS    LGT RAIN  56  54  93 W5        29.97R
FARGO          LGT RAIN  63  58  83 NW7       29.94F
BUFFALO SD       N/A     53  51  93 W7        29.87R
RAPID CITY     LGT RAIN  55  53  93 NE3       29.92S
$$

REGIONAL REPORTS...WYOMING/IDAHO/WASHINGTON

CITY           SKY/WX    TMP DP  RH WIND       PRES   REMARKS
GILLETTE       MOCLDY    50  48  93 SW6       29.99R
SHERIDAN       MOCLDY    48  46  93 CALM      29.98S
BUFFALO WY     CLOUDY    51  45  79 W7        30.02R
CODY           MOCLDY    48  45  87 SW5       30.02F
YELLOWSTONE LA   N/A     37  35  92 CALM      30.16S
IDAHO FALLS    CLOUDY    49  46  90 SW6       30.09F
SALMON         CLOUDY    48  46  93 CALM      30.09S
BOISE          CLEAR     53  45  74 CALM      30.04R
SPOKANE        PTCLDY    54  49  83 S8        30.02S
$$

REGIONAL REPORTS...ALBERTA

CITY           SKY/WX    TMP DP  RH WIND       PRES   REMARKS
EDMONTON       CLOUDY    46  41  81 N18       30.14R
CALGARY        MOCLDY    55  45  67 NW16G24   30.08R
LETHBRIDGE     CLOUDY    50  46  87 W18       30.00R
MEDICINE HAT   CLEAR     46  46 100 S3        29.96R
$$

REGIONAL REPORTS...SASKATCHEWAN

CITY           SKY/WX    TMP DP  RH WIND       PRES   REMARKS
SWIFT CURRENT  CLEAR     45  43  93 SE5       29.92F
REGINA         MOCLDY    55  50  82 SE5       29.92S
SASKATOON      MOCLDY    54  41  62 NW6       29.93R
$$



USA.gov is the U.S. government's official web portal to all federal, state and local government web resources and services.